Date,TemperatureHighF,TemperatureAvgF,TemperatureLowF,DewpointHighF,DewpointAvgF,DewpointLowF,HumidityHigh,HumidityAvg,HumidityLow,PressureMaxIn,PressureMinIn,WindSpeedMaxMPH,WindSpeedAvgMPH,GustSpeedMaxMPH,PrecipitationSumIn
2013-1-1,59.6,52.2,44.2,58.1,50.8,40.9,96,95,88,30.20,29.95,5,1,11,2.78
2013-1-2,44.2,42.4,40.4,40.9,38.4,36.5,89,85,81,30.31,30.18,4,1,8,0.00
2013-1-3,51.9,43.3,36.4,37.8,35.8,33.6,93,76,52,30.45,30.29,6,1,11,0.00
2013-1-4,50.4,44.3,37.1,41.4,34.9,32.2,84,70,54,30.54,30.36,5,1,8,0.00
2013-1-5,47.7,43.1,41.2,46.1,40.4,35.6,96,90,69,30.43,30.26,5,1,7,0.67
2013-1-6,56.6,46.6,38.7,44.9,41.7,36.9,94,84,63,30.36,30.25,5,1,9,0.00
2013-1-7,57.0,44.5,31.0,42.2,37.7,29.6,96,79,51,30.37,30.17,8,2,12,0.00
2013-1-8,51.2,46.4,43.9,46.8,41.2,39.7,86,82,77,30.19,30.12,5,2,10,0.01
2013-1-9,64.8,64.1,63.4,63.9,63.0,62.5,97,96,96,30.15,30.06,9,5,13,3.56
2013-1-10,65.7,63.2,60.6,64.0,61.9,59.7,97,96,90,30.13,29.97,14,3,20,3.01
2013-1-11,71.2,62.0,49.2,65.2,57.1,48.4,98,85,63,30.08,29.94,7,3,11,0.01
2013-1-12,75.2,71.8,66.5,69.9,68.8,65.2,97,90,79,29.97,29.77,12,6,19,0.06
2013-1-13,72.6,54.4,43.5,68.6,51.8,39.8,96,91,77,30.18,29.72,14,4,21,1.12
2013-1-14,43.4,38.1,35.0,39.9,35.4,32.6,94,90,84,30.25,30.11,6,2,15,0.09
2013-1-15,35.9,34.5,33.5,33.9,33.0,32.2,95,94,90,30.15,30.02,4,2,7,0.57
2013-1-16,38.6,35.5,32.7,36.9,33.8,31.4,95,93,86,30.25,30.10,3,1,9,0.12
2013-1-17,57.1,41.7,30.9,39.0,33.9,28.1,96,76,47,30.50,30.22,4,1,13,0.01
2013-1-18,59.3,42.5,31.8,37.6,32.9,26.4,96,73,30,30.58,30.39,9,1,10,0.00
2013-1-19,59.3,43.9,30.5,46.0,37.9,29.2,96,81,54,30.40,30.24,6,1,8,0.00
2013-1-20,66.0,48.3,33.6,52.7,41.4,32.3,96,80,41,30.31,30.15,3,0,5,0.00
2013-1-21,67.7,49.7,38.5,53.3,43.2,36.1,96,79,57,30.26,30.16,5,1,9,0.00
2013-1-22,62.7,48.7,37.2,47.2,39.1,31.5,90,70,54,30.38,30.25,6,2,9,0.00
2013-1-23,73.7,55.9,40.9,55.4,48.6,39.3,96,79,46,30.38,30.24,5,2,12,0.00
2013-1-24,73.9,61.6,51.8,63.9,57.5,50.3,96,87,71,30.32,30.17,5,1,8,0.00
2013-2-8,52.6,52.6,52.6,51.2,51.2,51.2,95,95,95,30.09,30.09,3,3,0,0.00
2013-2-9,52.6,52.6,52.6,51.2,51.2,51.2,95,95,95,30.09,30.09,3,3,0,0.00
2013-2-10,52.6,52.6,52.6,51.2,51.2,51.2,95,95,95,30.09,30.09,3,3,0,0.00
2013-2-11,52.6,52.3,51.4,51.2,50.7,49.4,95,95,93,30.13,30.08,8,3,13,1.05
2013-2-12,56.5,53.0,49.0,55.7,51.8,47.9,97,96,93,30.09,29.76,11,3,15,1.28
2013-2-13,55.4,49.0,38.4,49.7,42.7,36.8,97,80,59,30.10,29.90,6,2,12,0.00
2013-2-14,61.2,45.6,32.4,43.0,38.3,31.3,97,78,47,30.18,30.08,4,1,9,0.00
2013-2-15,64.8,49.6,35.8,45.4,40.3,34.5,96,73,41,30.27,30.12,4,1,10,0.00
2013-2-16,53.1,44.2,35.3,42.2,28.5,22.5,91,56,34,30.40,30.25,8,2,20,0.00
2013-2-17,66.3,49.8,32.7,47.2,39.0,29.5,93,68,45,30.33,30.14,8,4,18,0.00
2013-2-18,68.0,58.1,48.0,62.2,53.3,42.6,96,84,67,30.17,29.90,12,5,22,1.18
2013-2-19,62.3,53.0,43.8,56.1,40.1,32.2,90,64,34,30.30,29.99,7,2,22,0.00
2013-2-20,57.5,50.9,43.1,38.6,34.6,28.9,74,54,40,30.28,29.99,12,6,16,0.00
2013-2-21,71.1,59.4,50.5,69.0,53.2,34.8,96,81,49,29.99,29.65,12,1,22,0.64
2013-2-22,64.3,55.9,51.3,54.9,49.9,47.0,92,81,58,30.02,29.89,7,2,11,0.09
2013-2-23,64.8,52.9,45.4,49.5,45.0,40.7,89,76,53,30.02,29.91,5,2,8,0.00
2013-2-24,67.8,52.9,41.0,56.7,43.7,38.1,93,73,43,30.02,29.73,9,3,13,0.00
2013-2-25,68.3,61.0,49.5,64.9,56.1,34.4,97,85,49,29.73,29.40,9,4,14,0.26
2013-2-26,59.9,49.9,43.1,41.0,37.3,33.8,87,63,46,29.95,29.59,7,4,15,0.00
2013-2-27,69.0,51.9,36.9,45.8,39.2,32.8,95,66,37,30.11,29.94,6,2,15,0.00
2013-2-28,56.0,46.3,38.4,34.6,31.9,27.9,82,59,38,30.23,30.09,5,2,12,0.00
2013-3-1,55.9,44.6,35.1,36.2,32.6,29.0,85,65,36,30.24,30.12,6,2,15,0.00
2013-3-2,49.8,39.9,32.3,36.5,28.3,23.8,90,65,43,30.32,30.18,5,2,13,0.00
2013-3-3,60.2,45.3,28.3,37.0,31.6,25.5,91,62,32,30.32,30.09,6,2,11,0.00
2013-3-4,73.8,59.7,42.2,60.0,51.5,36.8,92,75,56,30.09,29.82,13,6,22,0.00
2013-3-5,67.3,61.5,47.5,62.3,46.5,26.5,91,61,32,30.28,29.83,8,4,22,0.00
2013-3-6,63.4,49.4,35.0,33.6,29.1,25.3,72,47,25,30.40,30.24,5,2,15,0.00
2013-3-7,64.0,49.6,35.7,38.2,35.0,31.3,86,60,34,30.38,30.23,6,2,12,0.00
2013-3-8,69.5,54.5,36.8,48.6,42.6,34.3,92,67,41,30.32,30.11,7,2,11,0.00
2013-3-9,71.0,62.0,53.2,61.9,55.6,47.3,86,80,69,30.12,29.89,11,4,18,0.00
2013-3-10,71.8,60.3,51.2,64.5,57.2,44.6,95,90,68,29.97,29.82,12,3,19,0.35
2013-3-11,56.8,49.5,39.8,43.9,36.6,33.0,86,63,43,30.07,29.96,7,3,14,0.00
2013-3-12,67.6,50.2,34.1,40.2,35.0,28.6,95,62,25,30.28,30.07,4,1,12,0.00
2013-3-13,67.9,54.1,39.7,39.2,34.5,29.1,92,53,26,30.46,30.25,6,2,11,0.00
2013-3-14,73.1,54.8,36.7,44.3,37.0,29.5,91,56,27,30.46,30.27,6,2,11,0.00
2013-3-15,78.8,62.3,44.0,57.2,49.5,41.5,92,66,36,30.29,30.07,7,3,15,0.00
2013-3-16,77.7,65.3,53.6,59.7,56.2,52.1,96,75,48,30.09,29.88,9,4,16,0.00
2013-3-17,79.3,66.1,56.6,67.4,61.2,55.5,96,85,61,29.93,29.74,10,3,14,0.00
2013-3-18,86.3,73.6,65.0,69.0,65.2,52.5,96,77,54,29.97,29.72,7,3,17,0.00
2013-3-19,73.0,62.2,50.6,52.7,44.2,37.8,83,55,34,30.07,29.94,10,5,19,0.00
2013-3-20,71.0,58.7,48.5,48.1,39.2,28.7,89,52,24,30.23,30.03,6,2,13,0.14
2013-3-21,64.9,55.0,43.2,45.2,38.6,31.3,83,56,34,30.07,29.80,9,4,16,0.00
2013-3-22,79.0,65.8,56.2,68.5,59.2,42.7,94,80,60,29.84,29.68,10,4,16,0.00
2013-3-23,73.1,66.4,58.0,67.1,62.9,55.7,95,89,80,29.81,29.57,5,2,9,0.22
2013-3-24,59.3,54.3,41.8,55.4,43.1,31.7,92,68,41,30.10,29.63,8,4,21,0.00
2013-3-25,56.0,42.2,34.3,32.1,26.1,16.0,76,56,22,30.34,30.08,6,2,16,0.00
2013-3-26,54.9,43.4,29.5,30.6,26.2,22.9,85,53,32,30.47,30.33,5,2,10,0.00
2013-3-27,63.6,48.2,31.6,37.1,32.5,28.3,91,59,32,30.47,30.24,7,2,10,0.00
2013-3-28,69.6,55.0,40.1,46.4,39.2,34.1,89,60,28,30.37,30.21,6,2,9,0.00
2013-3-29,78.4,64.1,49.6,57.5,51.9,43.5,95,69,32,30.29,30.14,7,2,13,0.00
2013-3-30,77.0,64.6,56.0,63.9,58.4,54.3,96,82,57,30.18,29.97,6,2,12,0.19
2013-3-31,71.7,62.3,55.5,65.2,60.0,54.7,97,92,73,30.04,29.85,8,2,25,0.86
2013-4-1,75.3,62.6,55.0,62.4,53.8,45.0,97,77,35,30.12,29.95,6,1,10,0.01
2013-4-2,77.4,65.1,52.1,63.1,55.8,49.9,94,73,53,30.09,29.94,11,3,15,0.00
2013-4-3,65.9,49.9,46.3,53.4,47.0,44.2,95,90,69,30.10,29.83,20,3,25,1.27
2013-4-4,49.7,46.7,44.7,45.2,43.9,43.2,95,90,83,30.13,30.00,5,2,12,0.01
2013-4-5,70.6,56.0,41.9,49.8,45.2,40.3,95,71,39,30.23,30.08,7,2,11,0.00
2013-4-6,73.9,59.6,45.5,57.4,51.5,44.2,96,77,52,30.14,29.99,9,3,14,0.00
2013-4-7,77.3,65.8,55.3,62.3,58.3,53.1,93,78,55,30.07,29.91,8,3,15,0.00
2013-4-8,79.3,70.0,62.1,65.7,63.0,60.0,95,80,60,29.95,29.85,9,4,18,0.00
2013-4-9,79.7,73.4,66.3,72.6,68.7,62.8,95,85,78,29.92,29.80,12,5,19,0.00
2013-4-10,82.2,76.2,56.4,72.8,70.5,53.8,91,83,72,29.89,29.73,10,6,21,0.12
2013-4-11,74.7,51.0,46.1,53.6,47.5,44.7,95,88,62,29.89,29.73,6,2,14,1.63
2013-4-12,73.3,57.2,41.8,52.8,45.7,40.7,97,71,33,30.03,29.87,3,1,7,0.02
2013-4-13,78.3,64.3,47.4,55.3,51.0,46.3,96,66,34,30.05,29.84,8,2,12,0.00
2013-4-14,75.6,65.8,57.7,66.7,60.5,51.8,95,84,62,29.88,29.70,11,3,15,0.10
2013-4-15,85.3,73.7,63.8,72.8,67.8,61.8,96,83,61,29.91,29.77,8,4,13,0.00
2013-4-16,81.1,76.5,73.8,74.8,72.8,71.8,95,89,81,30.03,29.89,7,4,11,0.00
2013-4-17,86.5,77.9,72.6,74.3,72.0,70.5,94,83,62,30.03,29.85,9,5,16,0.00
2013-4-18,82.4,70.5,50.3,74.0,65.5,46.6,94,85,74,30.00,29.69,9,5,18,0.86
2013-4-19,60.7,51.2,44.0,46.6,38.9,32.3,87,65,43,30.22,29.98,6,3,14,0.00
2013-4-20,68.3,54.5,38.2,47.2,41.8,35.2,96,67,36,30.29,30.12,8,2,14,0.00
2013-4-21,72.7,59.0,44.7,49.9,45.6,41.9,95,65,36,30.24,30.10,8,2,12,0.00
2013-4-22,77.5,62.8,46.1,56.1,51.0,44.6,95,69,42,30.15,29.97,6,2,12,0.00
2013-4-23,83.2,71.2,59.5,69.7,64.3,52.8,95,80,59,30.03,29.90,6,2,14,0.00
2013-4-24,70.9,58.2,49.6,68.9,54.0,46.1,95,86,70,30.26,29.94,7,2,15,0.35
2013-4-25,69.0,57.9,49.1,49.0,45.4,37.5,90,66,32,30.36,30.24,9,4,15,0.00
2013-4-26,77.6,65.9,51.5,67.9,59.1,48.1,92,79,67,30.27,30.11,7,2,10,0.00
2013-4-27,82.1,73.8,66.9,69.1,66.9,63.3,96,80,58,30.15,29.97,6,2,16,0.00
2013-4-28,79.2,69.9,62.8,69.3,66.0,61.3,96,88,65,30.04,29.91,6,1,10,0.03
2013-4-29,84.3,69.9,60.5,69.9,61.9,58.3,97,79,44,29.98,29.84,5,1,9,0.01
2013-4-30,77.7,69.0,60.4,69.3,64.9,59.3,97,87,75,29.89,29.80,8,3,11,0.00
2013-5-1,83.5,70.6,65.1,69.4,65.5,63.4,97,85,56,29.91,29.81,6,1,10,2.22
2013-5-2,72.5,66.1,55.6,67.2,63.5,54.2,96,92,81,30.03,29.89,7,2,14,0.07
2013-5-3,59.9,50.3,45.0,53.9,44.8,41.7,95,82,55,30.10,30.00,7,4,16,0.04
2013-5-4,74.8,59.0,38.2,46.2,42.1,36.9,95,59,31,30.06,29.81,4,2,12,0.00
2013-5-5,65.2,55.2,43.3,46.6,42.7,38.9,91,64,45,30.06,29.94,5,2,12,0.00
2013-5-6,76.8,61.0,43.6,55.9,50.6,41.8,94,71,46,30.07,29.93,5,1,11,0.00
2013-5-7,82.2,69.0,55.3,60.5,56.1,52.6,95,67,38,30.07,29.97,4,1,6,0.00
2013-5-8,83.8,70.3,55.4,65.8,60.9,54.0,96,74,50,30.09,30.00,6,1,10,0.00
2013-5-9,80.4,70.4,60.8,70.5,66.2,59.4,96,87,70,30.08,29.94,5,2,11,0.50
2013-5-10,77.3,69.0,64.1,69.0,65.8,63.0,97,90,72,30.02,29.80,12,2,20,2.99
2013-5-11,83.3,71.4,63.0,69.0,64.8,61.4,97,81,56,30.09,29.93,5,1,10,0.01
2013-5-12,76.8,65.8,55.0,61.6,56.3,50.8,97,74,48,30.19,30.07,5,1,12,0.00
2013-5-13,79.3,65.1,49.5,57.5,51.7,46.8,96,66,33,30.31,30.18,6,2,9,0.00
2013-5-14,86.5,70.8,54.2,63.6,56.0,52.2,96,64,32,30.26,30.11,6,2,11,0.00
2013-5-15,82.9,69.7,57.8,67.5,62.4,56.4,96,79,55,30.17,29.98,7,2,12,0.00
2013-5-16,82.9,73.2,65.4,70.6,66.6,63.6,95,81,65,30.01,29.85,7,3,17,0.00
2013-5-17,87.5,77.0,67.5,74.9,70.8,64.2,95,82,65,29.98,29.89,5,2,11,0.00
2013-5-18,89.3,79.9,73.2,75.1,72.2,69.9,93,78,61,30.02,29.93,6,2,12,0.00
2013-5-19,89.7,79.7,72.6,74.5,72.2,70.2,93,79,55,29.96,29.86,7,3,14,0.00
2013-5-20,89.5,81.3,76.3,76.6,73.9,72.2,90,79,63,29.97,29.82,8,4,16,0.00
2013-5-21,88.9,80.2,68.0,75.5,73.2,66.0,95,80,59,29.92,29.75,7,3,14,1.20
2013-5-22,83.2,73.5,66.1,75.0,69.5,64.6,96,88,73,29.96,29.78,9,2,12,0.83
2013-5-23,89.5,76.7,68.9,77.8,71.3,64.9,97,84,61,30.07,29.93,7,1,10,0.01
2013-5-24,89.0,76.2,65.2,75.1,69.1,63.8,96,80,57,30.16,30.03,7,2,13,0.00
2013-5-25,85.2,76.8,70.4,72.4,68.3,62.8,90,76,60,30.21,30.10,6,3,10,0.00
2013-5-26,83.6,77.3,72.1,71.1,69.6,66.4,94,78,58,30.16,30.05,5,2,9,0.00
2013-5-27,88.7,78.4,70.0,73.5,69.7,64.9,95,77,46,30.10,29.96,6,2,12,0.00
2013-5-28,88.0,78.5,70.2,72.4,69.5,67.2,96,76,52,30.02,29.92,7,3,12,0.00
2013-5-29,88.6,78.0,68.2,74.3,70.9,66.3,94,80,56,29.98,29.85,8,3,13,0.00
2013-5-30,86.5,79.3,73.0,77.9,73.8,71.5,96,84,69,29.95,29.84,8,3,14,0.15
2013-5-31,88.9,80.2,73.6,78.4,74.7,71.4,95,84,67,29.96,29.86,6,3,14,0.00
2013-6-1,91.5,82.2,75.8,79.5,75.7,73.9,95,81,65,29.94,29.83,5,3,13,0.00
2013-6-2,86.3,76.8,70.4,74.5,71.9,68.5,96,86,68,29.99,29.87,5,1,10,0.56
2013-6-3,86.3,77.4,69.1,73.3,70.3,67.7,96,80,61,29.96,29.85,5,2,11,0.00
2013-6-4,93.4,81.4,69.1,76.4,71.6,65.4,91,73,53,29.94,29.82,4,1,8,0.00
2013-6-5,93.3,83.6,73.8,78.4,75.3,72.2,95,77,57,29.92,29.74,4,1,8,0.00
2013-6-6,82.0,75.0,71.4,76.6,71.3,69.2,98,89,71,29.90,29.75,13,2,18,3.92
2013-6-7,86.0,75.2,68.5,72.0,69.5,67.3,96,84,59,29.90,29.81,2,1,6,0.02
2013-6-8,90.2,77.4,68.2,74.0,69.6,66.4,95,78,52,29.94,29.87,6,2,0,0.00
2013-6-9,91.6,74.1,68.3,76.9,70.0,66.8,97,88,58,29.96,29.86,6,1,12,0.53
2013-6-10,94.0,79.9,67.8,78.1,73.0,66.9,97,81,56,30.00,29.94,3,1,7,0.01
2013-6-11,93.1,82.7,72.7,79.4,76.0,71.7,97,82,59,30.08,29.97,4,1,8,0.00
2013-6-12,94.8,83.9,73.5,78.3,75.8,72.2,97,78,55,30.08,29.97,3,1,8,0.00
2013-6-13,94.7,82.8,73.8,79.2,73.0,-99.9,97,78,57,30.06,29.89,4,-14,9,0.00
2013-6-14,95.6,84.3,75.2,81.9,76.1,68.8,94,78,62,29.98,29.86,6,2,11,0.00
2013-6-15,92.1,80.7,68.7,75.3,70.8,66.2,93,73,50,30.01,29.91,4,1,6,0.00
2013-6-16,94.6,84.3,75.3,78.6,75.3,72.5,94,76,55,30.04,29.93,3,1,9,0.00
2013-6-17,95.1,84.4,73.1,77.6,75.2,71.6,96,75,52,30.00,29.87,4,1,9,0.00
2013-6-18,85.6,77.5,72.0,79.3,74.3,70.5,97,90,74,30.00,29.88,7,2,10,0.90
2013-6-19,85.9,76.0,70.4,78.0,73.0,69.5,97,91,75,30.02,29.94,6,1,12,0.15
2013-6-20,93.3,79.7,71.2,80.2,74.1,67.7,98,84,58,30.11,30.00,7,1,14,0.44
2013-6-21,92.9,80.8,72.7,79.2,74.5,71.3,97,83,58,30.11,30.03,6,1,8,0.00
2013-6-22,92.7,81.7,70.7,78.0,74.1,69.5,97,79,57,30.10,29.96,5,1,8,0.00
2013-6-23,91.5,82.1,72.5,77.2,74.5,71.0,96,79,55,30.06,29.96,6,2,10,0.00
2013-6-24,92.3,79.9,74.2,79.0,75.1,72.0,96,86,58,30.11,30.00,7,2,13,1.51
2013-6-25,93.3,81.6,71.8,79.0,75.3,70.8,97,82,59,30.07,29.95,4,1,10,0.01
2013-6-26,95.7,84.2,74.7,79.8,76.5,73.3,96,79,55,30.03,29.92,5,1,8,0.00
2013-6-27,96.8,84.5,73.2,78.5,75.3,71.5,96,76,48,30.03,29.90,3,1,8,0.00
2013-6-28,95.9,84.7,74.7,79.5,76.0,72.5,94,77,54,29.95,29.75,3,1,9,0.00
2013-6-29,96.9,86.1,75.6,80.9,75.1,67.9,95,72,44,29.79,29.69,4,1,12,0.00
2013-6-30,89.9,80.4,68.0,71.1,66.7,62.2,93,66,42,29.83,29.74,4,1,10,0.00
2013-7-1,88.2,77.8,66.4,69.3,66.1,63.8,93,69,49,29.94,29.82,4,1,10,0.00
2013-7-2,89.7,77.8,66.6,69.8,66.2,62.8,94,70,45,30.01,29.92,5,1,9,0.00
2013-7-3,89.5,77.5,65.5,68.7,65.6,60.0,95,70,41,30.05,29.93,6,2,11,0.00
2013-7-4,90.4,78.8,66.3,72.9,66.9,64.0,93,69,45,29.99,29.91,5,1,11,0.00
2013-7-5,93.8,78.5,67.5,73.7,66.9,-99.9,93,72,38,30.00,29.91,12,-5,18,0.00
2013-7-6,89.9,78.0,69.7,76.7,70.5,-99.9,96,81,56,30.00,29.90,5,-6,11,0.01
2013-7-7,90.2,75.9,74.2,78.0,66.7,-99.9,95,82,64,30.06,29.94,6,-45,9,0.11
2013-7-8,92.5,80.3,72.9,77.1,73.9,71.7,97,82,58,30.15,-32.77,5,1,7,0.00
2013-7-9,94.3,83.0,73.3,79.3,74.3,-99.9,97,78,56,30.17,30.03,4,-6,7,0.00
2013-7-10,95.9,84.8,74.4,78.7,75.7,72.9,96,76,53,30.10,29.93,3,1,6,0.00
2013-7-11,90.2,80.7,74.1,79.1,74.7,70.0,93,82,64,30.00,29.91,13,1,25,0.01
2013-7-12,96.4,83.9,72.7,77.9,72.5,64.6,96,71,49,29.96,29.85,7,1,11,0.01
2013-7-13,81.2,71.7,65.8,66.3,64.5,62.8,91,79,63,29.95,29.91,2,1,5,0.00
2013-7-14,89.1,78.3,69.4,75.5,70.0,66.0,90,77,57,29.98,29.90,6,2,12,0.00
2013-7-15,90.1,76.2,69.9,76.5,71.8,68.1,95,87,57,30.12,29.96,9,2,19,0.14
2013-7-16,89.0,80.1,74.0,76.9,74.0,71.8,95,83,64,30.17,30.06,12,3,18,0.14
2013-7-17,92.5,81.7,74.1,76.5,74.3,72.6,96,80,54,30.23,30.10,5,2,9,0.15
2013-7-18,94.8,79.3,72.3,77.3,72.6,70.0,95,81,54,30.16,30.01,5,1,10,0.00
2013-7-19,94.0,79.9,70.2,75.1,71.7,68.9,96,78,50,30.07,29.92,4,1,8,0.00
2013-7-20,92.6,80.2,69.8,75.7,71.9,68.3,96,78,54,29.99,29.88,5,1,10,0.00
2013-7-21,89.4,79.1,71.5,79.6,74.0,70.0,96,85,66,30.00,29.93,7,1,13,0.19
2013-7-22,94.0,83.0,73.3,81.6,76.3,71.8,96,81,61,30.03,29.93,4,2,13,0.09
2013-7-23,95.3,85.0,76.9,78.4,76.0,73.8,96,76,52,30.04,29.88,5,2,11,0.09
2013-7-24,92.5,81.2,73.5,78.8,75.1,71.2,97,83,60,29.98,29.86,7,1,12,1.26
2013-7-25,92.6,81.6,72.6,77.3,74.0,71.8,98,80,54,30.05,29.93,5,1,7,1.26
2013-7-26,93.3,83.0,74.5,78.7,74.8,70.8,93,77,59,30.06,29.90,6,1,9,0.00
2013-7-27,85.3,79.2,74.2,78.2,75.1,71.7,96,88,73,29.93,29.86,4,1,8,0.49
2013-7-28,91.3,80.8,70.6,76.0,72.9,69.4,96,78,57,30.00,29.92,5,1,8,0.49
2013-7-29,94.0,83.5,74.3,78.9,75.2,72.5,96,78,52,30.09,29.99,4,1,8,0.00
2013-7-30,96.5,83.7,71.6,78.4,73.7,68.4,97,74,43,30.14,30.01,4,1,8,0.00
2013-7-31,96.2,84.5,74.2,78.8,74.8,70.5,95,75,50,30.09,29.93,3,1,8,0.00
2013-8-1,94.4,83.6,75.7,81.6,77.1,73.8,95,82,64,30.04,29.89,3,1,6,0.10
2013-8-2,97.8,85.8,73.8,81.7,76.4,72.0,95,75,53,29.98,29.90,5,1,7,0.10
2013-8-3,95.0,85.0,74.8,79.4,76.7,73.2,96,78,55,30.05,29.97,4,1,7,0.00
2013-8-4,97.1,85.4,74.7,79.9,76.1,72.7,96,76,47,30.10,29.96,5,1,9,0.00
2013-8-5,96.9,85.7,75.1,79.5,76.1,73.3,96,75,50,30.05,29.90,3,1,7,0.00
2013-8-6,98.7,87.1,76.2,78.6,75.4,70.4,95,71,43,29.98,29.85,4,1,11,0.00
2013-8-7,98.2,86.9,77.7,78.1,75.9,69.3,95,72,44,29.97,29.83,5,2,11,0.00
2013-8-8,97.1,85.3,74.5,78.4,74.0,68.7,96,72,41,29.95,29.84,6,2,10,0.00
2013-8-9,99.8,85.2,75.4,80.4,75.8,72.9,93,75,48,30.00,29.88,6,2,12,0.09
2013-8-10,95.9,81.7,76.7,79.5,76.7,74.1,96,86,52,30.06,29.97,7,1,11,0.08
2013-8-11,95.9,81.5,74.3,78.2,74.9,72.2,96,82,50,30.09,30.00,6,2,10,0.29
2013-8-12,91.5,80.2,74.5,79.6,76.0,73.3,97,87,65,30.10,29.97,4,1,8,0.01
2013-8-13,94.7,71.3,76.7,79.9,51.1,-99.9,95,70,57,30.03,29.87,7,1,13,0.81
2013-8-14,-200.0,0.0,200.0,-99.9,-99.9,-99.9,0,0,100,30.00,29.91,3,0,10,1.44
2013-8-15,-200.0,0.0,200.0,-99.9,-99.9,-99.9,0,0,100,30.03,29.92,4,1,10,1.44
2013-8-16,-200.0,0.0,200.0,-99.9,-99.9,-99.9,0,0,100,30.01,29.93,4,1,9,0.00
2013-8-17,-200.0,0.0,200.0,-99.9,-99.9,-99.9,0,0,100,30.01,29.92,6,2,15,0.00
2013-8-18,-200.0,0.0,200.0,-99.9,-99.9,-99.9,0,0,100,30.05,29.96,8,2,13,0.00
2013-8-19,-200.0,0.0,200.0,-99.9,-99.9,-99.9,0,0,100,30.08,29.96,5,2,10,0.00
2013-8-20,-200.0,0.0,200.0,-99.9,-99.9,-99.9,0,0,100,30.06,29.98,7,1,12,0.21
2013-8-21,-200.0,0.0,200.0,-99.9,-99.9,-99.9,0,0,100,30.11,30.02,8,2,13,0.03
2013-8-22,-200.0,0.0,200.0,-99.9,-99.9,-99.9,0,0,100,30.10,29.94,5,1,11,0.03
2013-8-23,-200.0,0.0,200.0,-99.9,-99.9,-99.9,0,0,100,30.01,29.89,7,2,15,0.00
2013-8-24,-200.0,0.0,200.0,-99.9,-99.9,-99.9,0,0,100,30.08,29.98,8,3,17,0.40
2013-8-25,-200.0,0.0,200.0,-99.9,-99.9,-99.9,0,0,100,30.15,30.07,9,4,14,0.40
2013-8-26,-200.0,0.0,200.0,-99.9,-99.9,-99.9,0,0,100,30.19,30.09,7,2,12,0.00
2013-8-27,-200.0,0.0,200.0,-99.9,-99.9,-99.9,0,0,100,30.14,30.01,3,1,7,0.00
2013-8-28,-200.0,0.0,200.0,-99.9,-99.9,-99.9,0,0,100,30.08,29.98,5,1,9,0.00
2013-8-29,-200.0,0.0,200.0,-99.9,-99.9,-99.9,0,0,100,30.07,29.96,4,1,8,0.00
2013-8-30,-200.0,0.0,200.0,-99.9,-99.9,-99.9,0,0,100,30.03,29.90,4,1,7,0.00
2013-8-31,-200.0,0.0,200.0,-99.9,-99.9,-99.9,0,0,100,29.98,29.91,3,0,5,0.00
2013-9-1,-200.0,0.0,200.0,-99.9,-99.9,-99.9,0,0,100,29.89,29.81,2,0,0,0.00
2013-9-2,-200.0,0.0,200.0,-99.9,-99.9,-99.9,0,0,100,29.97,29.83,5,1,10,0.00
2013-9-3,-200.0,0.0,200.0,-99.9,-99.9,-99.9,0,0,100,29.98,29.85,6,1,10,0.03
2013-9-4,-200.0,0.0,200.0,-99.9,-99.9,-99.9,0,0,100,30.06,29.94,6,1,12,0.03
2013-9-5,-200.0,0.0,200.0,-99.9,-99.9,-99.9,0,0,100,30.10,29.98,5,1,9,0.00
2013-9-6,-200.0,0.0,200.0,-99.9,-99.9,-99.9,0,0,100,30.10,29.96,8,1,12,0.00
2013-9-7,-200.0,0.0,200.0,-99.9,-99.9,-99.9,0,0,100,30.06,29.93,5,1,8,0.00
2013-9-8,-200.0,0.0,200.0,-99.9,-99.9,-99.9,0,0,100,30.02,29.91,5,1,8,0.00
2013-9-9,-200.0,0.0,200.0,-99.9,-99.9,-99.9,0,0,100,30.04,29.95,6,2,12,0.00
2013-9-10,-200.0,0.0,200.0,-99.9,-99.9,-99.9,0,0,100,30.11,29.99,5,1,10,0.00
2013-9-11,-200.0,0.0,200.0,-99.9,-99.9,-99.9,0,0,100,30.12,30.00,6,2,11,0.00
2013-9-12,-200.0,0.0,200.0,-99.9,-99.9,-99.9,0,0,100,30.06,29.89,5,1,12,0.00
2013-9-13,-200.0,0.0,200.0,-99.9,-99.9,-99.9,0,0,100,29.93,29.80,7,1,13,0.00
2013-9-14,-200.0,0.0,200.0,-99.9,-99.9,-99.9,0,0,100,29.97,29.88,6,3,13,0.00
2013-9-15,-200.0,0.0,200.0,-99.9,-99.9,-99.9,0,0,100,30.04,29.95,6,2,10,0.00
2013-9-16,-200.0,0.0,200.0,-99.9,-99.9,-99.9,0,0,100,30.08,29.97,7,2,11,0.00
2013-9-17,-200.0,0.0,200.0,-99.9,-99.9,-99.9,0,0,100,30.09,29.93,7,2,11,0.00
2013-9-18,-200.0,0.0,200.0,-99.9,-99.9,-99.9,0,0,100,30.04,29.91,7,-5,13,0.00
2013-9-19,-200.0,0.0,200.0,-99.9,-99.9,-99.9,0,0,100,30.02,29.88,8,3,14,0.06
2013-9-20,-200.0,0.0,200.0,-99.9,-99.9,-99.9,0,0,100,29.97,29.77,7,2,17,3.76
2013-9-21,-200.0,0.0,200.0,-99.9,-99.9,-99.9,0,0,100,29.83,29.76,4,2,17,0.05
2013-9-22,-200.0,0.0,200.0,-99.9,-99.9,-99.9,0,0,100,29.88,29.77,7,3,14,0.05
2013-9-23,-200.0,0.0,200.0,-99.9,-99.9,-99.9,0,0,100,29.86,29.76,5,2,11,0.01
2013-9-24,-200.0,0.0,200.0,-99.9,-99.9,-99.9,0,0,100,29.85,29.78,3,-7,6,0.05
2013-9-25,-200.0,0.0,200.0,-99.9,-99.9,-99.9,0,0,100,29.85,29.79,2,0,3,0.06
2013-9-28,-200.0,0.0,200.0,-99.9,-99.9,-99.9,0,0,100,30.03,29.95,4,1,5,0.00
2013-9-29,-200.0,0.0,200.0,-99.9,-99.9,-99.9,0,0,100,30.03,29.92,5,1,7,0.71
2013-9-30,-200.0,0.0,200.0,-99.9,-99.9,-99.9,0,0,100,29.94,29.86,5,1,8,0.01
2013-10-1,-200.0,0.0,200.0,-99.9,-99.9,-99.9,0,0,100,30.00,29.91,7,3,11,0.22
2013-10-2,-200.0,0.0,200.0,-99.9,-99.9,-99.9,0,0,100,30.04,29.93,5,2,9,0.23
2013-10-3,-200.0,0.0,200.0,-99.9,-99.9,-99.9,0,0,100,30.01,29.90,5,2,9,0.00
2013-10-4,-200.0,0.0,200.0,-99.9,-99.9,-99.9,0,0,100,30.00,29.92,8,3,13,0.30
2013-10-5,-200.0,0.0,200.0,-99.9,-99.9,-99.9,0,0,100,29.98,29.86,8,2,12,0.03
2013-10-6,-200.0,0.0,200.0,-99.9,-99.9,-99.9,0,0,100,30.01,29.88,5,2,11,0.12
2013-10-7,-200.0,0.0,200.0,-99.9,-99.9,-99.9,0,0,100,30.10,30.00,4,-58,9,0.00
2013-10-8,-200.0,0.0,200.0,-99.9,-99.9,-99.9,0,0,100,30.11,30.00,5,-62,8,0.00
2013-10-9,-200.0,0.0,200.0,-99.9,-99.9,-99.9,0,0,100,30.11,30.02,3,0,6,0.00
2013-10-10,-200.0,0.0,200.0,-99.9,-99.9,-99.9,0,0,100,30.13,29.98,4,1,6,0.00
2013-10-11,-200.0,0.0,200.0,-99.9,-99.9,-99.9,0,0,100,30.03,29.92,0,0,6,0.01
2013-10-12,-200.0,0.0,200.0,-99.9,-99.9,-99.9,0,0,100,30.11,29.94,9,0,19,1.72
2013-10-13,-200.0,0.0,200.0,-99.9,-99.9,-99.9,0,0,100,30.19,30.03,5,2,9,1.72
2013-10-14,-200.0,0.0,200.0,-99.9,-99.9,-99.9,0,0,100,30.14,29.99,5,2,8,0.00
2013-10-15,-200.0,0.0,200.0,-99.9,-99.9,-99.9,0,0,100,30.03,29.90,5,1,8,0.00
2013-10-16,-200.0,0.0,200.0,-99.9,-99.9,-99.9,0,0,100,29.98,29.89,4,1,8,0.00
2013-10-17,-200.0,0.0,200.0,-99.9,-99.9,-99.9,0,0,100,30.07,29.96,2,-29,5,0.01
2013-10-18,-200.0,0.0,200.0,-99.9,-99.9,-99.9,0,0,100,30.07,29.93,6,-126,10,0.01
2013-10-19,-200.0,0.0,200.0,-99.9,-99.9,-99.9,0,0,100,30.08,29.93,4,-164,9,0.09
2013-10-20,-200.0,0.0,200.0,-99.9,-99.9,-99.9,0,0,100,30.12,29.98,4,-179,7,0.00
2013-10-21,-200.0,0.0,200.0,-99.9,-99.9,-99.9,0,0,100,30.06,29.96,5,-182,9,0.00
2013-10-22,-200.0,0.0,200.0,-99.9,-99.9,-99.9,0,0,100,30.06,29.98,2,-185,7,0.01
2013-10-23,-200.0,0.0,200.0,-99.9,-99.9,-99.9,0,0,100,30.14,30.05,4,-179,9,0.01
2013-10-24,-200.0,0.0,200.0,-99.9,-99.9,-99.9,0,0,100,30.25,30.11,4,-197,10,0.00
2013-10-25,-200.0,0.0,200.0,-99.9,-99.9,-99.9,0,0,100,30.44,30.24,8,-204,13,0.00
2013-10-26,-200.0,0.0,200.0,-99.9,-99.9,-99.9,0,0,100,30.33,30.25,3,-480,9,0.00